Погода в Кэри

США     35°46′55″N   78°46′50″W
темп.,
°C
ветер,
м/с
пор.,
м/с
влажн.,
%
обл.,
%
осадки,
мм/ч
давл.,
гПа
погр.,
м
26 июня, вс
вс2623:00+24юв37420 0.0 1020206
02:00+21ю39840 0.0 1020283
05:00+20ююз239126 0.0 1021101
08:00+23юз2379100 0.0 1021327
11:00+30ююз214779 0.0 10211288
14:00+33ююв213268 0.0 10192532
17:00+34ююв3328100 0.0 10172804
20:00+29ююв4839100 0.0 1017426
27 июня, пн
пн2723:00+26ю49529 0.0 1019605
02:00+23ююз41171100 0.0 1018469
05:00+22ююз31072100 0.0 1018469
08:00+21юз3987100 0.6 1019345
11:00+21юз2689100 1.1 1019291
14:00+21зюз3595100 2.6 1019252
17:00+23юз3487100 0.8 1018453
20:00+22ююз2589100 0.8 1018282
28 июня, вт
вт2823:00+21юз2396100 0.1 101980
02:00+20зюз11965 0.1 102014
05:00+19св249846 0.5 1020157
08:00+21св599262 0.5 1022741
11:00+26всв5553100 0.1 10231276
14:00+29в334123 0.1 10221820
17:00+29вюв3340100 0.0 10211937
20:00+26юв3657100 0.0 1021721
29 июня, ср
ср2923:00+23юв3771100 0.0 1023403
02:00+22юв3778100 0.0 1023371
05:00+20юв2595100 2.5 1023211
08:00+20юв249482 8.1 1024233
11:00+22юв1290100 4.8 1025355
14:00+22вюв239368 6.0 1024220
17:00+27ююв236755 0.4 1023944
20:00+24ююв23840 2.5 102358
30 июня, чт
чт3023:00+22ююв22870 0.1 102323
02:00+21ююз11910 0.1 102313
05:00+20юз11920 0.0 102319
08:00+22юз12840 0.0 1023147
11:00+30зсз00550 0.0 1023987
14:00+33юв11395 0.0 10222158
17:00+33ююв323651 0.0 10202422
20:00+28ю37591 0.0 1021350